Find Starlink 31159

NORAD ID: 58740 Int'l Des: 2024-005 Owner: SPXS Country: US Constellation: starlink operational
LEOCIRCULAR

Live Position

Loading 3D Globe...

About Starlink 31159

Description loading...

Upcoming Passes

Passes for default location (London). Set your location on the main map for personalized predictions.

Altitude History

Loading altitude history...

Two-Line Element Set

1 58740U 24005N 26123.12852307 -.00000766 00000-0 -18317-4 0 9992
2 58740 43.0045 271.9407 0001177 261.9832 98.0886 15.27571492128866
Epoch: May 3, 2026 • Age: 6 hours

Current Status

Altitude 492.5 km
Velocity 7.62 km/s
Sub-Earth Point -35.42°S, 146.21°E
Launch Date Jan 7, 2024
Age 2.3 years
Type internet

Technical Details

Classification Payload
Mass 730.00 kg
Dry Mass 700.00 kg
Total Mass 730.00 kg
Length 0.30 m
Diameter 4.10 m
Span 29.00 m
Shape Box + pan
Manufacturer SPXS
Bus Type Starlink V2M
Phase Status In Orbit
Owner/State SPXS/US

Most Searched